Location: Alvis C Story Elementary School
(33.0968°N, 96.6364°W)
Time: 08:53:37
(UTC+00:00)

Meteor 2-6 Rocket - Visible Passes

Search period start: 26 June 2022 00:00
Search period end: 06 July 2022 00:00
Orbit: 807 x 913 km, 81.3° (Epoch: 25 June)

Date Brightness Start Highest point End Pass type
(mag) Time Alt. Az. Time Alt. Az. Time Alt. Az.
26 Jun 4.8 09:02:10 10° N 09:08:02 60° E 09:12:57 14° SSE visible
26 Jun 6.0 10:47:23 10° NW 10:50:28 15° W 10:53:32 10° WSW visible
27 Jun 4.8 08:53:00 10° N 08:58:51 58° E 09:02:58 19° SSE visible
27 Jun 5.9 10:38:06 10° NW 10:41:18 15° W 10:44:29 10° WSW visible
28 Jun 4.8 08:43:50 10° N 08:49:40 56° E 08:53:06 24° SSE visible
28 Jun 5.9 10:28:49 10° NW 10:32:09 16° W 10:35:15 11° WSW visible
29 Jun 4.9 08:34:40 10° N 08:40:29 54° E 08:43:17 29° SE visible
29 Jun 5.9 10:19:33 10° NW 10:22:59 16° W 10:25:26 13° WSW visible
30 Jun 4.9 08:25:31 10° N 08:31:17 53° E 08:33:33 34° SE visible
30 Jun 5.8 10:10:17 10° NW 10:13:49 17° W 10:15:43 14° WSW visible
01 Jul 4.9 08:16:21 10° N 08:22:06 51° E 08:23:51 38° SE visible
01 Jul 5.8 10:01:01 10° NW 10:04:39 17° W 10:06:02 16° WSW visible
02 Jul 4.9 08:07:12 10° N 08:12:55 49° E 08:14:13 42° ESE visible
02 Jul 5.8 09:51:45 10° NW 09:55:29 18° W 09:56:23 17° W visible
03 Jul 4.9 07:58:03 10° N 08:03:43 48° ENE 08:04:38 44° ESE visible
03 Jul 5.7 09:42:30 10° NW 09:46:18 18° W 09:46:48 18° W visible
04 Jul 5.0 07:48:53 10° N 07:54:32 46° ENE 07:55:05 45° E visible
04 Jul 5.8 09:33:15 10° NW 09:37:08 19° W 09:37:15 19° W visible
05 Jul 5.0 07:39:44 10° N 07:45:20 45° ENE 07:45:34 45° E visible
05 Jul 5.8 09:24:00 10° NW 09:27:45 19° W 09:27:45 19° W visible
